This is the latest recevied weather packets stored in our database for station/object KC7UNY-13. If no packets are shown the sender has not sent any weather packets the latest 10 day(s).
| Time | Temp. | Humidity | Pressure | Rain* | Wind** | Luminosity | Snow |
|---|---|---|---|---|---|---|---|
| 1777933523 | 25.56° C | 38% | 1011.4 hPa | 0 mm | - | 270 W/m² | - |
| 1777933221 | 25.56° C | 39% | 1011.2 hPa | 0 mm | - | 239 W/m² | - |
| 1777932918 | 25.56° C | 39% | 1011.1 hPa | 0 mm | - | 190 W/m² | - |
| 1777932615 | 25.56° C | 39% | 1011.1 hPa | 0 mm | - | 201 W/m² | - |
| 1777932311 | 25.56° C | 39% | 1011.3 hPa | 0 mm | - | 209 W/m² | - |
| 1777932008 | 25.56° C | 40% | 1011.6 hPa | 0 mm | - | 215 W/m² | - |
| 1777931705 | 25.56° C | 39% | 1011.8 hPa | 0 mm | - | 232 W/m² | - |
| 1777931403 | 25.56° C | 39% | 1011.9 hPa | 0 mm | - | 227 W/m² | - |
| 1777931098 | 25.56° C | 39% | 1011.9 hPa | 0 mm | - | 226 W/m² | - |
| 1777930795 | 25.56° C | 39% | 1012 hPa | 0 mm | - | 209 W/m² | - |
| 1777930490 | 25.56° C | 39% | 1012.5 hPa | 0 mm | - | 228 W/m² | - |
| 1777930189 | 25.56° C | 38% | 1012.5 hPa | 0 mm | - | 196 W/m² | - |
| 1777929884 | 25.56° C | 39% | 1012.4 hPa | 0 mm | - | 207 W/m² | - |
| 1777929582 | 25.56° C | 39% | 1012.5 hPa | 0 mm | - | 192 W/m² | - |
| 1777929278 | 25.56° C | 38% | 1012.5 hPa | 0 mm | - | 157 W/m² | - |
| 1777928976 | 25° C | 39% | 1012.6 hPa | 0 mm | - | 179 W/m² | - |
| 1777928673 | 25.56° C | 38% | 1012.5 hPa | 0 mm | - | 194 W/m² | - |
| 1777928370 | 25.56° C | 38% | 1012.6 hPa | 0 mm | - | 212 W/m² | - |
| 1777928067 | 25.56° C | 39% | 1012.7 hPa | 0 mm | - | 211 W/m² | - |
| 1777927765 | 25.56° C | 38% | 1012.5 hPa | 0 mm | - | 234 W/m² | - |
| 1777927463 | 25.56° C | 39% | 1012.4 hPa | 0 mm | - | 266 W/m² | - |
| 1777927162 | 26.11° C | 37% | 1012.4 hPa | 0 mm | - | 330 W/m² | - |
| 1777926859 | 25.56° C | 38% | 1012.3 hPa | 0 mm | - | 335 W/m² | - |
| 1777926555 | 26.11° C | 38% | 1012.4 hPa | 0 mm | - | 325 W/m² | - |
| 1777926252 | 26.11° C | 38% | 1012.3 hPa | 0 mm | - | 339 W/m² | - |
* Rain latest hour (hover to see other rain measurements)
** Current wind speed in m/s (hover to see current wind gust speed)